This is the latest recevied weather packets stored in our database for station/object K9RJT. If no packets are shown the sender has not sent any weather packets the latest 10 day(s).
| Time | Temp. | Humidity | Pressure | Rain* | Wind** | Luminosity | Snow |
|---|---|---|---|---|---|---|---|
| 1777671679 | 26.11° C | 23% | 1010.3 hPa | 0 mm | - | 618 W/m² | - |
| 1777671376 | 26.67° C | 23% | 1010.3 hPa | 0 mm | - | 654 W/m² | - |
| 1777671072 | 26.67° C | 24% | 1010.6 hPa | 0 mm | - | 675 W/m² | - |
| 1777670769 | 25° C | 24% | 1010.5 hPa | 0 mm | - | 588 W/m² | - |
| 1777670466 | 25° C | 23% | 1010.9 hPa | 0 mm | - | 506 W/m² | - |
| 1777670162 | 25° C | 23% | 1010.6 hPa | 0 mm | - | 578 W/m² | - |
| 1777669860 | 25.56° C | 23% | 1010.8 hPa | 0 mm | - | 539 W/m² | - |
| 1777669556 | 25.56° C | 23% | 1011 hPa | 0 mm | - | 627 W/m² | - |
| 1777669253 | 26.11° C | 23% | 1011 hPa | 0 mm | - | 582 W/m² | - |
| 1777668950 | 24.44° C | 23% | 1011 hPa | 0 mm | - | 649 W/m² | - |
| 1777668648 | 25.56° C | 23% | 1011.3 hPa | 0 mm | - | 623 W/m² | - |
| 1777668343 | 25.56° C | 23% | 1011.2 hPa | 0 mm | - | 675 W/m² | - |
| 1777668040 | 25.56° C | 23% | 1011.3 hPa | 0 mm | - | 621 W/m² | - |
| 1777667736 | 25° C | 23% | 1011.4 hPa | 0 mm | - | 635 W/m² | - |
| 1777667434 | 25° C | 24% | 1011.7 hPa | 0 mm | - | 659 W/m² | - |
| 1777667131 | 25° C | 24% | 1011.4 hPa | 0 mm | - | 703 W/m² | - |
| 1777666827 | 24.44° C | 24% | 1011.6 hPa | 0 mm | - | 710 W/m² | - |
| 1777666525 | 24.44° C | 24% | 1011.8 hPa | 0 mm | - | 638 W/m² | - |
| 1777666221 | 24.44° C | 25% | 1011.8 hPa | 0 mm | - | 608 W/m² | - |
| 1777665918 | 25° C | 24% | 1011.7 hPa | 0 mm | - | 672 W/m² | - |
| 1777665616 | 25° C | 23% | 1012.1 hPa | 0 mm | - | 680 W/m² | - |
| 1777665313 | 23.89° C | 25% | 1012.1 hPa | 0 mm | - | 689 W/m² | - |
| 1777665008 | 23.89° C | 24% | 1012.2 hPa | 0 mm | - | 662 W/m² | - |
| 1777664704 | 24.44° C | 24% | 1012.2 hPa | 0 mm | - | 692 W/m² | - |
| 1777664400 | 24.44° C | 24% | 1012.2 hPa | 0 mm | - | 658 W/m² | - |
* Rain latest hour (hover to see other rain measurements)
** Current wind speed in m/s (hover to see current wind gust speed)